This is the latest recevied weather packets stored in our database for station/object K7FED. If no packets are shown the sender has not sent any weather packets the latest 10 day(s).
| Time | Temp. | Humidity | Pressure | Rain* | Wind** | Luminosity | Snow |
|---|---|---|---|---|---|---|---|
| 1777490934 | 23.89° C | 43% | 1015.4 hPa | 0 mm | - | 920 W/m² | - |
| 1777490634 | 23.89° C | 44% | 1015.6 hPa | 0 mm | - | 426 W/m² | - |
| 1777490334 | 23.89° C | 44% | 1015.6 hPa | 0 mm | - | 99 W/m² | - |
| 1777490034 | 23.89° C | 44% | 1015.7 hPa | 0 mm | - | 53 W/m² | - |
| 1777489735 | 23.33° C | 46% | 1015.8 hPa | 0 mm | - | 54 W/m² | - |
| 1777489135 | 23.33° C | 46% | 1015.9 hPa | 0 mm | - | 49 W/m² | - |
| 1777488535 | 23.33° C | 45% | 1016.1 hPa | 0 mm | - | 58 W/m² | - |
| 1777487935 | 22.78° C | 47% | 1016.2 hPa | 0 mm | - | 53 W/m² | - |
| 1777487635 | 22.78° C | 48% | 1016.3 hPa | 0 mm | - | 54 W/m² | - |
| 1777487332 | 22.78° C | 48% | 1016.2 hPa | 0 mm | - | 161 W/m² | - |
| 1777486733 | 22.22° C | 49% | 1016.3 hPa | 0 mm | - | 48 W/m² | - |
| 1777486132 | 22.22° C | 49% | 1016.3 hPa | 0 mm | - | 84 W/m² | - |
| 1777485832 | 22.22° C | 49% | 1016.3 hPa | 0 mm | - | 117 W/m² | - |
| 1777485529 | 21.67° C | 50% | 1016.3 hPa | 0 mm | - | 155 W/m² | - |
| 1777484330 | 21.11° C | 51% | 1016.4 hPa | 0 mm | - | 44 W/m² | - |
| 1777484029 | 21.11° C | 50% | 1016.4 hPa | 0 mm | - | 72 W/m² | - |
| 1777483730 | 21.11° C | 52% | 1016.4 hPa | 0 mm | - | 113 W/m² | - |
| 1777483130 | 20.56° C | 52% | 1016.4 hPa | 0 mm | - | 94 W/m² | - |
| 1777482830 | 20.56° C | 54% | 1016.4 hPa | 0 mm | - | 44 W/m² | - |
| 1777482530 | 20.56° C | 53% | 1016.5 hPa | 0 mm | - | 41 W/m² | - |
| 1777481927 | 20° C | 54% | 1016.5 hPa | 0 mm | - | 40 W/m² | - |
| 1777481627 | 19.44° C | 53% | 1016.6 hPa | 0 mm | - | 43 W/m² | - |
| 1777480727 | 18.89° C | 55% | 1016.7 hPa | 0 mm | - | 41 W/m² | - |
| 1777480427 | 18.89° C | 55% | 1016.7 hPa | 0 mm | - | 61 W/m² | - |
| 1777480127 | 18.33° C | 57% | 1016.6 hPa | 0 mm | - | 37 W/m² | - |
* Rain latest hour (hover to see other rain measurements)
** Current wind speed in m/s (hover to see current wind gust speed)